Weather History for Aberdeen / Amory, MS

Change the Weather History Date:

Tuesday, May 8, 2012

  Actual Average (KCBM) Record (KCBM)
Temperature  
Mean Temperature 73 °F -  
Max Temperature 86 °F 79 °F 89 °F (2003)
Min Temperature 60 °F 57 °F 50 °F (2013)
Cooling Degree Days 8    
Growing Degree Days 23 (Base 50)    
Moisture  
Dew Point 53 °F    
Average Humidity 55    
Maximum Humidity 58    
Minimum Humidity 52    
Precipitation  
Precipitation 0.19 in - - ()
Sea Level Pressure  
Sea Level Pressure 29.92 in    
Wind  
Wind Speed 1 mph ()    
Max Wind Speed 18 mph    
Max Gust Speed 30 mph    
Visibility 4.4 miles    
Events Rain    
Averages and records for this station are not official NWS values.
T = Trace of Precipitation, MM = Missing Value Source: Averaged Metar Reports

Daily Weather History Graph

Daily Weather History Graph

Search for Another Location

Airport:

Trip Planner

Search our weather history database for the weather conditions in past years. The results will help you decide how hot, cold, wet, or windy it might be!

Date:

Astronomy

May. 08, 2012 Rise Set
Actual Time 5:57 AM CDT 7:43 PM CDT
Civil Twilight 5:30 AM CDT 8:10 PM CDT
Nautical Twilight 4:58 AM CDT 8:43 PM CDT
Astronomical Twilight 4:23 AM CDT 9:18 PM CDT
Moon 10:50 PM CDT (5/8) 8:09 AM CDT (5/8)
Length of Visible Light 14h 39m
Length of Day
13h 45m
Waning Gibbous, 90% of the Moon is Illuminated
May 8
Waning Gibbous
May 12
Last Quarter
May 20
New
May 28
First Quarter
Jun 4
Full

Hourly Weather History & Observations

Time (CDT) Temp. Heat Index Dew Point Humidity Pressure Visibility Wind Dir Wind Speed Gust Speed Precip Events Conditions
12:15 AM 62.6 °F - 46.4 °F 55% 29.91 in 1.8 mi Calm Calm - N/A   Haze
12:35 AM 62.6 °F - 46.4 °F 55% 29.91 in 3.0 mi Calm Calm - N/A   Haze
1:35 AM 62.6 °F - 46.4 °F 55% 29.90 in 3.0 mi Calm Calm - N/A   Haze
1:55 AM 62.6 °F - 46.4 °F 55% 29.91 in 2.0 mi Calm Calm - N/A   Haze
2:15 AM 62.6 °F - 44.6 °F 52% 29.90 in 1.5 mi Calm Calm - N/A   Haze
2:35 AM 60.8 °F - 44.6 °F 55% 29.90 in 3.0 mi Calm Calm - N/A   Haze
2:55 AM 60.8 °F - 44.6 °F 55% 29.90 in 1.5 mi Calm Calm - N/A   Haze
3:15 AM 60.8 °F - 44.6 °F 55% 29.91 in 1.5 mi Calm Calm - N/A   Haze
3:35 AM 62.6 °F - 44.6 °F 52% 29.91 in 0.8 mi Calm Calm - N/A   Haze
3:55 AM 62.6 °F - 46.4 °F 55% 29.91 in 0.2 mi Calm Calm - N/A   Haze
4:15 AM 62.6 °F - 46.4 °F 55% 29.91 in 0.2 mi Calm Calm - N/A   Haze
4:35 AM 62.6 °F - 46.4 °F 55% 29.91 in 0.2 mi Calm Calm - N/A   Haze
4:55 AM 62.6 °F - 46.4 °F 55% 29.92 in 0.2 mi Calm Calm - N/A   Haze
5:15 AM 62.6 °F - 46.4 °F 55% 29.92 in 0.2 mi Calm Calm - N/A   Haze
5:35 AM 62.6 °F - 46.4 °F 55% 29.93 in 0.2 mi Calm Calm - N/A   Haze
5:55 AM 62.6 °F - 46.4 °F 55% 29.93 in 0.2 mi Calm Calm - N/A   Haze
6:15 AM 62.6 °F - 46.4 °F 55% 29.93 in 0.2 mi Calm Calm - N/A   Haze
6:55 AM 64.4 °F - 46.4 °F 52% 29.94 in 0.2 mi NE 3.5 mph - N/A   Haze
7:15 AM 64.4 °F - 46.4 °F 52% 29.95 in 0.2 mi Calm Calm - N/A   Haze
7:35 AM 64.4 °F - 48.2 °F 56% 29.95 in 0.2 mi Calm Calm - N/A   Haze
7:55 AM 64.4 °F - 48.2 °F 56% 29.95 in 0.2 mi Calm Calm - N/A   Haze
8:15 AM 64.4 °F - 48.2 °F 56% 29.95 in 0.2 mi Calm Calm - N/A   Haze
8:35 AM 66.2 °F - 48.2 °F 52% 29.96 in 0.2 mi SSE 3.5 mph - N/A   Haze
8:55 AM 66.2 °F - 50.0 °F 56% 29.95 in 0.2 mi SE 3.5 mph - N/A   Haze
9:15 AM 68.0 °F - 51.8 °F 56% 29.94 in 0.8 mi Calm Calm - N/A   Haze
9:35 AM 69.8 °F - 51.8 °F 53% 29.94 in 1.0 mi NNE 3.5 mph - N/A   Haze
9:55 AM 71.6 °F - 53.6 °F 53% 29.95 in 5.0 mi NNE 4.6 mph - N/A   Haze
10:15 AM 71.6 °F - 53.6 °F 53% 29.95 in 8.0 mi North 4.6 mph - N/A   Overcast
10:35 AM 73.4 °F - 55.4 °F 53% 29.95 in 8.0 mi Calm Calm - N/A   Mostly Cloudy
10:55 AM 75.2 °F - 57.2 °F 53% 29.95 in 10.0 mi Calm Calm - N/A   Scattered Clouds
11:15 AM 78.8 °F - 60.8 °F 54% 29.95 in 9.0 mi Calm Calm - N/A   Clear
11:35 AM 80.6 °F 81.8 °F 62.6 °F 54% 29.95 in 10.0 mi Calm Calm - N/A   Partly Cloudy
11:55 AM 80.6 °F 81.8 °F 62.6 °F 54% 29.95 in 10.0 mi Calm Calm - N/A   Clear
12:15 PM 80.6 °F 82.3 °F 64.4 °F 58% 29.94 in 10.0 mi Calm Calm - N/A   Partly Cloudy
12:35 PM 80.6 °F 82.3 °F 64.4 °F 58% 29.94 in 10.0 mi North 3.5 mph - N/A   Scattered Clouds
1:15 PM 82.4 °F 83.9 °F 64.4 °F 54% 29.93 in 10.0 mi Calm Calm - N/A   Scattered Clouds
1:35 PM 84.2 °F 86.6 °F 66.2 °F 55% 29.93 in 9.0 mi Calm Calm - N/A   Scattered Clouds
1:55 PM 84.2 °F 86.6 °F 66.2 °F 55% 29.93 in 9.0 mi WSW 3.5 mph - N/A   Scattered Clouds
2:15 PM 82.4 °F 84.6 °F 66.2 °F 58% 29.93 in 10.0 mi NNE 5.8 mph - N/A   Scattered Clouds
2:35 PM 84.2 °F 86.6 °F 66.2 °F 55% 29.92 in 10.0 mi ENE 3.5 mph - N/A   Scattered Clouds
2:55 PM 84.2 °F 86.6 °F 66.2 °F 55% 29.91 in 10.0 mi Calm Calm - N/A   Scattered Clouds
3:15 PM 86.0 °F 89.4 °F 68.0 °F 55% 29.89 in 9.0 mi North 4.6 mph - N/A   Partly Cloudy
3:35 PM 86.0 °F 89.4 °F 68.0 °F 55% 29.87 in 10.0 mi ENE 3.5 mph - N/A   Clear
3:55 PM 84.2 °F 86.6 °F 66.2 °F 55% 29.86 in 9.0 mi NNE 3.5 mph - N/A   Clear
4:15 PM 84.2 °F 86.6 °F 66.2 °F 55% 29.86 in 9.0 mi NE 4.6 mph - N/A   Scattered Clouds
4:35 PM 82.4 °F 83.9 °F 64.4 °F 54% 29.86 in 9.0 mi Calm Calm - N/A   Partly Cloudy
4:55 PM 82.4 °F 83.9 °F 64.4 °F 54% 29.85 in 8.0 mi Calm Calm - N/A   Light Drizzle
5:15 PM 80.6 °F 82.3 °F 64.4 °F 58% 29.86 in 9.0 mi NNW 17.3 mph 27.6 mph N/A   Scattered Clouds
5:35 PM 71.6 °F - 55.4 °F 57% 29.87 in 9.0 mi North 18.4 mph 29.9 mph N/A   Mostly Cloudy
6:15 PM 68.0 °F - 51.8 °F 56% 29.91 in 3.0 mi West 10.4 mph - 0.01 in Rain Light Rain
6:35 PM 66.2 °F - 50.0 °F 56% 29.93 in 1.2 mi WNW 6.9 mph - 0.06 in Rain Heavy Rain
6:55 PM 66.2 °F - 50.0 °F 56% 29.93 in 1.0 mi West 4.6 mph - 0.16 in Rain Rain
7:15 PM 66.2 °F - 50.0 °F 56% 29.92 in 1.2 mi Calm Calm - 0.03 in Rain Rain
8:15 PM 66.2 °F - 50.0 °F 56% 29.91 in 5.0 mi West 4.6 mph - N/A   Haze
8:35 PM 66.2 °F - 50.0 °F 56% 29.92 in 5.0 mi Calm Calm - N/A   Haze
8:55 PM 66.2 °F - 50.0 °F 56% 29.93 in 4.0 mi North 4.6 mph - N/A   Haze
9:15 PM 66.2 °F - 50.0 °F 56% 29.92 in 5.0 mi Calm Calm - N/A   Haze
9:35 PM 66.2 °F - 48.2 °F 52% 29.92 in 5.0 mi Calm Calm - N/A   Haze
10:15 PM 66.2 °F - 50.0 °F 56% 29.92 in 5.0 mi NW 3.5 mph - N/A   Haze
10:35 PM 66.2 °F - 48.2 °F 52% 29.92 in 4.0 mi Calm Calm - N/A   Haze
10:55 PM 66.2 °F - 48.2 °F 52% 29.93 in 4.0 mi Calm Calm - N/A   Haze
11:15 PM 66.2 °F - 48.2 °F 52% 29.93 in 4.0 mi Calm Calm - N/A   Haze
11:35 PM 66.2 °F - 50.0 °F 56% 29.91 in 1.8 mi Calm Calm - N/A   Haze
11:55 PM 66.2 °F - 50.0 °F 56% 29.91 in 0.2 mi Calm Calm - N/A   Haze